Location: Unspecified
(38.9917°N, 0.0000°E)
Time: 00:13:06
(UTC+00:00)

Tiangong 2 - Visible Passes

Search period start: 27 June 2019 00:00
Search period end: 07 July 2019 00:00
Orbit: 376 x 388 km, 42.8° (Epoch: 26 June)

Date Brightness Start Highest point End Pass type
(mag) Time Alt. Az. Time Alt. Az. Time Alt. Az.
27 Jun 3.1 02:16:12 20° ESE 02:16:12 20° ESE 02:17:44 10° E visible
27 Jun 1.3 03:48:27 10° WSW 03:51:36 69° NNW 03:54:47 10° ENE visible
28 Jun 1.0 02:50:41 50° SW 02:51:22 75° SSE 02:54:32 10° ENE visible
29 Jun 3.3 01:52:59 20° E 01:52:59 20° E 01:54:12 10° E visible
29 Jun 1.8 03:25:09 12° W 03:27:52 50° NNW 03:30:59 10° ENE visible
30 Jun 1.1 02:27:26 69° NW 02:27:35 71° NNW 02:30:45 10° ENE visible
30 Jun 2.4 04:01:32 10° WNW 04:04:32 39° N 04:07:32 10° ENE visible
01 Jul 3.7 01:29:43 16° ENE 01:29:43 16° ENE 01:30:29 10° ENE visible
01 Jul 2.2 03:01:52 15° WNW 03:04:10 41° N 03:07:12 10° ENE visible
02 Jul 2.0 02:04:11 47° NNE 02:04:11 47° NNE 02:06:55 10° ENE visible
02 Jul 2.3 03:37:49 10° WNW 03:40:50 41° N 03:43:51 10° ENE visible
03 Jul 4.2 01:06:33 11° ENE 01:06:33 11° ENE 01:06:40 10° ENE visible
03 Jul 2.4 02:38:43 20° WNW 02:40:28 38° N 02:43:27 10° ENE visible
04 Jul 3.0 01:41:09 30° NE 01:41:09 30° NE 01:43:07 10° ENE visible
04 Jul 2.0 03:14:02 10° WNW 03:17:06 48° NNE 03:20:11 10° E visible
05 Jul 2.3 02:15:56 33° NW 02:16:45 40° N 02:19:45 10° ENE visible
05 Jul 1.0 03:50:27 10° WNW 03:53:35 80° SSW 03:56:45 10° ESE visible
06 Jul 4.0 01:18:48 14° ENE 01:18:48 14° ENE 01:19:21 10° ENE visible
06 Jul 1.4 02:50:59 16° WNW 02:53:19 66° NNE 02:56:28 10° E visible
